OPS 4682 DEB, 18534

Orbit data source: Space-Track

OPS 4682 DEB, 18534 is space debris in LEO originally from a launch on Sat, 03 Apr 1965 UTC launched from the Air Force Western Test Range (AFWTR). Debris objects in space refer to the collection of defunct objects orbiting the Earth. Examples of debris include non-operational satellites, rocket bodies, and fragments generated from explosions, collisions, or faulty payload assembly.

Loading next visibility...
Identifier
18534, 1965-027AE
Orbit
LEO
Country
Flag of USUS
Related business
Manufacturer
Unknown
Mission
Spacecraft
Bus & Motor
Unknown
Mass
Unknown
Launch date (UTC)
1965-04-03 (61 years ago)
Launch vehicle
Unknown
Launch site
Air Force Western Test Range (AFWTR)
Object type
Payload
Rocket body
Debris
Shape & HBR
Unknown shape, 0.1 m
Radar Cross Section
Small (<0.1 m²)

Expand to show TLE details & history
Last TLE update: 2 days ago

TLE from 2 days ago
0 OPS 4682 DEB
1 18534U 65027AE  26103.01334943 -.00000188  00000-0 -68395-3 0  9993
2 18534  90.2768  22.3361 0026575 285.1683  92.1821 12.96165926832553
Epoch: 2026-04-13T00:19Z
TLE epoch observation values (Epoch: 2026-04-13T00:19:13.390Z)
Latitude
17.64308°
Longitude
176.23267°
Altitude
1,280.287 km
Speed
7.217 km/s
True Right ascension
01h 28m 59s
True Declination
17° 33' 03"
Sunlit
Object was in daylight at epoch
Visualization orbit readout
Latitude
Unknown
Longitude
Unknown
Altitude
Unknown
Speed
Unknown
Apparent Right ascension
Unknown
Apparent Declination
Unknown
Sunlit
N/A
Visualization observer readout
Local Sidereal Time
22:59:41
Azimuth
Unknown
Elevation
Unknown
Doppler factor
Unknown
Orbital elements
Apogee altitude
1,294.615 km
Perigee altitude
1,253.942 km
Semi-major axis
7,652.415 km
Eccentricity
0.00266
Inclination
90.2768°
RAAN
22.3361°
Arg. of periapsis
285.1683°
True anomaly
92.48637°
Mean anomaly
92.1821°
Eccentric anomaly
92.33424°
Mean motion
3.24224 °/min
Orbital period
111.03 mins
BSTAR
-0.00068395
Loading maneuver chart data...
Computing Atmospheric mass density...
Loading historical data...
Loading historical data...
Loading historical data...
Loading historical data...
Loading historical data...
Loading historical data...
Loading historical data...

Documentation

Showing up to 5 results
|